Back to catalog

STARLINK-5714

AliveCommunicationsVLEO
NORAD 55614·PAYLOAD·🇺🇸 United States

Launched Feb 12, 2023 from Cape Canaveral Space Force Station

Loading…

Next Passes (next 24 hours)

TLE

FreshSource: CelesTrak SupGP

Epoch: Sep 15, 2026, 02:18 UTC

1 55614C 23020AX  26258.09631944  .00012655  00000+0  45836-3 0  2582
2 55614  43.0020 349.7862 0001614 263.4979 213.7428 15.27570801    17

Track STARLINK-5714 in real time with AllMySat

Download on the App Store